Погода в Кальпе

Испания     38°39′11″N   0°02′43″E
темп.,
°C
ветер,
м/с
пор.,
м/с
влажн.,
%
обл.,
%
осадки,
мм/ч
давл.,
гПа
погр.,
м
4 марта, чт
чт401:00+10ссз239654 0.3 102760
04:00+10ссз239469 0.4 102591
07:00+9ссз349677 0.7 102394
10:00+12с458591 0.3 1023465
13:00+14ссв337095 0.6 1022841
16:00+13св326398 0.0 1020787
19:00+10ссв227999 0.0 101868
22:00+9с119093 0.0 102023
5 марта, пт
пт501:00+9ссз128889 0.0 101954
04:00+8сз239234 0.0 101850
07:00+7ссз229119 0.0 101740
10:00+12с22752 0.0 1018405
13:00+13св326526 0.0 1018811
16:00+13всв326969 0.0 1017713
19:00+10всв129082 0.0 101744
22:00+9ссз1192100 0.0 102029
6 марта, сб
сб601:00+9ссз2291100 0.0 102040
04:00+8сз3392100 0.0 102073
07:00+8сз339298 0.0 102174
10:00+11с3481100 0.0 1022457
13:00+13ссв336898 0.1 1023808
16:00+13ссв3373100 0.0 1022675
19:00+10ссв238994 0.1 1022124
22:00+9с129362 0.0 102330
7 марта, вс
вс701:00+10ссз348968 0.2 1023192
04:00+10с2398100 1.9 1022175
07:00+10ссз3496100 3.3 1022221
10:00+10сз3491100 0.3 1022284
13:00+12с3380100 0.4 1022483
16:00+13с447180 0.0 1020653
19:00+10с228875 0.0 101968
22:00+9сз238781 0.0 102044
8 марта, пн
пн801:00+8сз228640 0.0 101932
04:00+7зсз12870 0.0 101829
07:00+6зсз11850 0.0 101829
10:00+12юв11640 0.0 1019354
13:00+14юв33660 0.2 1019691
16:00+15ююв34615 0.9 1017547
19:00+11ю33833 1.1 101768
22:00+10юз33885 0.0 101955